Year,Month,Day,Hour,Minute,Value (Times are PST for temperature in C)
2019,04,01,00,00,7.70
2019,04,01,00,01,7.70
2019,04,01,00,02,7.70
2019,04,01,00,03,7.70
2019,04,01,00,04,7.80
2019,04,01,00,05,7.80
2019,04,01,00,06,7.80
2019,04,01,00,07,7.80
2019,04,01,00,08,7.80
2019,04,01,00,09,7.70
2019,04,01,00,10,7.70
2019,04,01,00,11,7.70
2019,04,01,00,12,7.70
2019,04,01,00,13,7.60
2019,04,01,00,14,7.60
2019,04,01,00,15,7.60
2019,04,01,00,16,7.50
2019,04,01,00,17,7.50
2019,04,01,00,18,7.50
2019,04,01,00,19,7.50
2019,04,01,00,20,7.50
2019,04,01,00,21,7.50
2019,04,01,00,22,7.50
2019,04,01,00,23,7.50
2019,04,01,00,24,7.50
2019,04,01,00,25,7.50
2019,04,01,00,26,7.50
2019,04,01,00,27,7.40
2019,04,01,00,28,7.40
2019,04,01,00,29,7.40
2019,04,01,00,30,7.40
2019,04,01,00,31,7.40
2019,04,01,00,32,7.40
2019,04,01,00,33,7.40
2019,04,01,00,34,7.30
2019,04,01,00,35,7.30
2019,04,01,00,36,7.30
2019,04,01,00,37,7.30
2019,04,01,00,38,7.30
2019,04,01,00,39,7.30
2019,04,01,00,40,7.30
2019,04,01,00,41,7.30
2019,04,01,00,42,7.30
2019,04,01,00,43,7.30
2019,04,01,00,44,7.30
2019,04,01,00,45,7.30
2019,04,01,00,46,7.30
2019,04,01,00,47,7.30
2019,04,01,00,48,7.30
2019,04,01,00,49,7.30
2019,04,01,00,50,7.30
2019,04,01,00,51,7.30
2019,04,01,00,52,7.30
2019,04,01,00,53,7.30
2019,04,01,00,54,7.30
2019,04,01,00,55,7.30
2019,04,01,00,56,7.30
2019,04,01,00,57,7.30
2019,04,01,00,58,7.30
2019,04,01,00,59,7.30
2019,04,01,01,00,7.30
2019,04,01,01,01,7.30
2019,04,01,01,02,7.20
2019,04,01,01,03,7.20
2019,04,01,01,04,7.20
2019,04,01,01,05,7.20
2019,04,01,01,06,7.10
2019,04,01,01,07,7.10
2019,04,01,01,08,7.10
2019,04,01,01,09,7.10
2019,04,01,01,10,7.00
2019,04,01,01,11,7.00
2019,04,01,01,12,7.00
2019,04,01,01,13,7.00
2019,04,01,01,14,7.00
2019,04,01,01,15,7.00
2019,04,01,01,16,7.00
2019,04,01,01,17,7.00
2019,04,01,01,18,7.00
2019,04,01,01,19,7.00
2019,04,01,01,20,7.00
2019,04,01,01,21,7.00
2019,04,01,01,22,7.10
2019,04,01,01,23,7.10
2019,04,01,01,24,7.10
2019,04,01,01,25,7.20
2019,04,01,01,26,7.20
2019,04,01,01,27,7.20
2019,04,01,01,28,7.20
2019,04,01,01,29,7.20
2019,04,01,01,30,7.10
2019,04,01,01,31,7.00
2019,04,01,01,32,7.00
2019,04,01,01,33,6.90
2019,04,01,01,34,6.90
2019,04,01,01,35,6.90
2019,04,01,01,36,6.80
2019,04,01,01,37,6.80
2019,04,01,01,38,6.80
2019,04,01,01,39,6.80
2019,04,01,01,40,6.70
2019,04,01,01,41,6.70
2019,04,01,01,42,6.70
2019,04,01,01,43,6.70
2019,04,01,01,44,6.70
2019,04,01,01,45,6.70
2019,04,01,01,46,6.70
2019,04,01,01,47,6.70
2019,04,01,01,48,6.70
2019,04,01,01,49,6.70
2019,04,01,01,50,6.70
2019,04,01,01,51,6.80
2019,04,01,01,52,6.80
2019,04,01,01,53,6.80
2019,04,01,01,54,6.80
2019,04,01,01,55,6.80
2019,04,01,01,56,6.70
2019,04,01,01,57,6.70
2019,04,01,01,58,6.70
2019,04,01,01,59,6.70
2019,04,01,02,00,6.70
2019,04,01,02,01,6.60
2019,04,01,02,02,6.60
2019,04,01,02,03,6.60
2019,04,01,02,04,6.60
2019,04,01,02,05,6.60
2019,04,01,02,06,6.60
2019,04,01,02,07,6.60
2019,04,01,02,08,6.60
2019,04,01,02,09,6.60
2019,04,01,02,10,6.60
2019,04,01,02,11,6.60
2019,04,01,02,12,6.50
2019,04,01,02,13,6.40
2019,04,01,02,14,6.40
2019,04,01,02,15,6.40
2019,04,01,02,16,6.40
2019,04,01,02,17,6.40
2019,04,01,02,18,6.40
2019,04,01,02,19,6.40
2019,04,01,02,20,6.40
2019,04,01,02,21,6.30
2019,04,01,02,22,6.30
2019,04,01,02,23,6.30
2019,04,01,02,24,6.30
2019,04,01,02,25,6.30
2019,04,01,02,26,6.20
2019,04,01,02,27,6.20
2019,04,01,02,28,6.20
2019,04,01,02,29,6.20
2019,04,01,02,30,6.20
2019,04,01,02,31,6.20
2019,04,01,02,32,6.20
2019,04,01,02,33,6.20
2019,04,01,02,34,6.20
2019,04,01,02,35,6.20
2019,04,01,02,36,6.20
2019,04,01,02,37,6.20
2019,04,01,02,38,6.20
2019,04,01,02,39,6.20
2019,04,01,02,40,6.20
2019,04,01,02,41,6.20
2019,04,01,02,42,6.20
2019,04,01,02,43,6.20
2019,04,01,02,44,6.20
2019,04,01,02,45,6.20
2019,04,01,02,46,6.20
2019,04,01,02,47,6.20
2019,04,01,02,48,6.20
2019,04,01,02,49,6.20
2019,04,01,02,50,6.20
2019,04,01,02,51,6.20
2019,04,01,02,52,6.20
2019,04,01,02,53,6.20
2019,04,01,02,54,6.20
2019,04,01,02,55,6.20
2019,04,01,02,56,6.20
2019,04,01,02,57,6.20
2019,04,01,02,58,6.20
2019,04,01,02,59,6.10
2019,04,01,03,00,6.10
2019,04,01,03,01,6.10
2019,04,01,03,02,6.10
2019,04,01,03,03,6.00
2019,04,01,03,04,6.00
2019,04,01,03,05,6.00
2019,04,01,03,06,6.00
2019,04,01,03,07,5.90
2019,04,01,03,08,5.90
2019,04,01,03,09,5.90
2019,04,01,03,10,5.80
2019,04,01,03,11,5.80
2019,04,01,03,12,5.80
2019,04,01,03,13,5.70
2019,04,01,03,14,5.80
2019,04,01,03,15,5.80
2019,04,01,03,16,5.90
2019,04,01,03,17,5.90
2019,04,01,03,18,5.90
2019,04,01,03,19,5.90
2019,04,01,03,20,5.90
2019,04,01,03,21,5.90
2019,04,01,03,22,5.90
2019,04,01,03,23,5.90
2019,04,01,03,24,6.00
2019,04,01,03,25,6.00
2019,04,01,03,26,6.00
2019,04,01,03,27,5.90
2019,04,01,03,28,5.90
2019,04,01,03,29,5.90
2019,04,01,03,30,5.90
2019,04,01,03,31,5.90
2019,04,01,03,32,5.80
2019,04,01,03,33,5.80
2019,04,01,03,34,5.80
2019,04,01,03,35,5.80
2019,04,01,03,36,5.80
2019,04,01,03,37,5.80
2019,04,01,03,38,5.80
2019,04,01,03,39,5.80
2019,04,01,03,40,5.80
2019,04,01,03,41,5.90
2019,04,01,03,42,5.90
2019,04,01,03,43,5.90
2019,04,01,03,44,5.90
2019,04,01,03,45,5.90
2019,04,01,03,46,5.80
2019,04,01,03,47,5.80
2019,04,01,03,48,5.80
2019,04,01,03,49,5.80
2019,04,01,03,50,5.80
2019,04,01,03,51,5.80
2019,04,01,03,52,5.80
2019,04,01,03,53,5.70
2019,04,01,03,54,5.80
2019,04,01,03,55,5.80
2019,04,01,03,56,5.80
2019,04,01,03,57,5.90
2019,04,01,03,58,5.90
2019,04,01,03,59,5.90
2019,04,01,04,00,5.90
2019,04,01,04,01,5.90
2019,04,01,04,02,5.90
2019,04,01,04,03,5.90
2019,04,01,04,04,5.90
2019,04,01,04,05,5.90
2019,04,01,04,06,5.90
2019,04,01,04,07,5.90
2019,04,01,04,08,5.90
2019,04,01,04,09,5.90
2019,04,01,04,10,5.90
2019,04,01,04,11,5.90
2019,04,01,04,12,5.90
2019,04,01,04,13,6.00
2019,04,01,04,14,5.90
2019,04,01,04,15,5.90
2019,04,01,04,16,5.90
2019,04,01,04,17,5.90
2019,04,01,04,18,5.90
2019,04,01,04,19,5.90
2019,04,01,04,20,5.90
2019,04,01,04,21,5.90
2019,04,01,04,22,5.90
2019,04,01,04,23,5.90
2019,04,01,04,24,5.90
2019,04,01,04,25,5.90
2019,04,01,04,26,5.90
2019,04,01,04,27,5.90
2019,04,01,04,28,5.90
2019,04,01,04,29,5.90
2019,04,01,04,30,5.90
2019,04,01,04,31,5.90
2019,04,01,04,32,5.90
2019,04,01,04,33,5.90
2019,04,01,04,34,5.90
2019,04,01,04,35,5.90
2019,04,01,04,36,6.00
2019,04,01,04,37,6.00
2019,04,01,04,38,6.00
2019,04,01,04,39,6.10
2019,04,01,04,40,6.20
2019,04,01,04,41,6.20
2019,04,01,04,42,6.20
2019,04,01,04,43,6.20
2019,04,01,04,44,6.30
2019,04,01,04,45,6.30
2019,04,01,04,46,6.40
2019,04,01,04,47,6.50
2019,04,01,04,48,6.70
2019,04,01,04,49,6.80
2019,04,01,04,50,6.90
2019,04,01,04,51,7.00
2019,04,01,04,52,7.10
2019,04,01,04,53,7.20
2019,04,01,04,54,7.30
2019,04,01,04,55,7.40
2019,04,01,04,56,7.50
2019,04,01,04,57,7.50
2019,04,01,04,58,7.60
2019,04,01,04,59,7.60
2019,04,01,05,00,7.60
2019,04,01,05,01,7.70
2019,04,01,05,02,7.80
2019,04,01,05,03,7.80
2019,04,01,05,04,7.80
2019,04,01,05,05,7.80
2019,04,01,05,06,7.90
2019,04,01,05,07,7.90
2019,04,01,05,08,8.00
2019,04,01,05,09,8.00
2019,04,01,05,10,8.00
2019,04,01,05,11,8.00
2019,04,01,05,12,8.10
2019,04,01,05,13,8.10
2019,04,01,05,14,8.10
2019,04,01,05,15,8.00
2019,04,01,05,16,8.00
2019,04,01,05,17,8.00
2019,04,01,05,18,8.00
2019,04,01,05,19,8.00
2019,04,01,05,20,8.00
2019,04,01,05,21,8.00
2019,04,01,05,22,8.00
2019,04,01,05,23,7.90
2019,04,01,05,24,7.90
2019,04,01,05,25,7.90
2019,04,01,05,26,7.90
2019,04,01,05,27,7.90
2019,04,01,05,28,7.90
2019,04,01,05,29,7.80
2019,04,01,05,30,7.90
2019,04,01,05,31,7.90
2019,04,01,05,32,7.90
2019,04,01,05,33,7.90
2019,04,01,05,34,7.90
2019,04,01,05,35,7.90
2019,04,01,05,36,8.00
2019,04,01,05,37,8.00
2019,04,01,05,38,8.10
2019,04,01,05,39,8.10
2019,04,01,05,40,8.10
2019,04,01,05,41,8.20
2019,04,01,05,42,8.20
2019,04,01,05,43,8.20
2019,04,01,05,44,8.20
2019,04,01,05,45,8.30
2019,04,01,05,46,8.30
2019,04,01,05,47,8.30
2019,04,01,05,48,8.30
2019,04,01,05,49,8.30
2019,04,01,05,50,8.30
2019,04,01,05,51,8.30
2019,04,01,05,52,8.30
2019,04,01,05,53,8.30
2019,04,01,05,54,8.30
2019,04,01,05,55,8.40
2019,04,01,05,56,8.40
2019,04,01,05,57,8.40
2019,04,01,05,58,8.40
2019,04,01,05,59,8.40
2019,04,01,06,00,8.40
2019,04,01,06,01,8.40
2019,04,01,06,02,8.40
2019,04,01,06,03,8.40
2019,04,01,06,04,8.50
2019,04,01,06,05,8.50
2019,04,01,06,06,8.50
2019,04,01,06,07,8.50
2019,04,01,06,08,8.50
2019,04,01,06,09,8.50
2019,04,01,06,10,8.50
2019,04,01,06,11,8.50
2019,04,01,06,12,8.50
2019,04,01,06,13,8.50
2019,04,01,06,14,8.50
2019,04,01,06,15,8.60
2019,04,01,06,16,8.60
2019,04,01,06,17,8.60
2019,04,01,06,18,8.60
2019,04,01,06,19,8.60
2019,04,01,06,20,8.70
2019,04,01,06,21,8.70
2019,04,01,06,22,8.70
2019,04,01,06,23,8.60
2019,04,01,06,24,8.60
2019,04,01,06,25,8.60
2019,04,01,06,26,8.60
2019,04,01,06,27,8.60
2019,04,01,06,28,8.60
2019,04,01,06,29,8.60
2019,04,01,06,30,8.60
2019,04,01,06,31,8.60
2019,04,01,06,32,8.60
2019,04,01,06,33,8.60
2019,04,01,06,34,8.60
2019,04,01,06,35,8.60
2019,04,01,06,36,8.60
2019,04,01,06,37,8.60
2019,04,01,06,38,8.60
2019,04,01,06,39,8.60
2019,04,01,06,40,8.60
2019,04,01,06,41,8.60
2019,04,01,06,42,8.60
2019,04,01,06,43,8.60
2019,04,01,06,44,8.60
2019,04,01,06,45,8.60
2019,04,01,06,46,8.70
2019,04,01,06,47,8.70
2019,04,01,06,48,8.70
2019,04,01,06,49,8.70
2019,04,01,06,50,8.70
2019,04,01,06,51,8.70
2019,04,01,06,52,8.60
2019,04,01,06,53,8.60
2019,04,01,06,54,8.70
2019,04,01,06,55,8.70
2019,04,01,06,56,8.70
2019,04,01,06,57,8.70
2019,04,01,06,58,8.70
2019,04,01,06,59,8.80
2019,04,01,07,00,8.80
2019,04,01,07,01,8.80
2019,04,01,07,02,8.90
2019,04,01,07,03,8.90
2019,04,01,07,04,8.90
2019,04,01,07,05,8.90
2019,04,01,07,06,8.90
2019,04,01,07,07,8.90
2019,04,01,07,08,8.90
2019,04,01,07,09,9.00
2019,04,01,07,10,9.00
2019,04,01,07,11,9.00
2019,04,01,07,12,9.00
2019,04,01,07,13,9.00
2019,04,01,07,14,8.90
2019,04,01,07,15,8.90
2019,04,01,07,16,8.90
2019,04,01,07,17,8.90
2019,04,01,07,18,8.90
2019,04,01,07,19,8.90
2019,04,01,07,20,8.90
2019,04,01,07,21,8.90
2019,04,01,07,22,8.90
2019,04,01,07,23,8.90
2019,04,01,07,24,8.90
2019,04,01,07,25,8.90
2019,04,01,07,26,8.90
2019,04,01,07,27,8.90
2019,04,01,07,28,8.90
2019,04,01,07,29,8.90
2019,04,01,07,30,9.00
2019,04,01,07,31,9.00
2019,04,01,07,32,9.00
2019,04,01,07,33,9.00
2019,04,01,07,34,9.10
2019,04,01,07,35,9.10
2019,04,01,07,36,9.10
2019,04,01,07,37,9.10
2019,04,01,07,38,9.10
2019,04,01,07,39,9.10
2019,04,01,07,40,9.20
2019,04,01,07,41,9.20
2019,04,01,07,42,9.20
2019,04,01,07,43,9.20
2019,04,01,07,44,9.20
2019,04,01,07,45,9.20
2019,04,01,07,46,9.20
2019,04,01,07,47,9.20
2019,04,01,07,48,9.20
2019,04,01,07,49,9.20
2019,04,01,07,50,9.20
2019,04,01,07,51,9.20
2019,04,01,07,52,9.20
2019,04,01,07,53,9.20
2019,04,01,07,54,9.20
2019,04,01,07,55,9.20
2019,04,01,07,56,9.20
2019,04,01,07,57,9.20
2019,04,01,07,58,9.20
2019,04,01,07,59,9.20
2019,04,01,08,00,9.20
2019,04,01,08,01,9.20
2019,04,01,08,02,9.20
2019,04,01,08,03,9.30
2019,04,01,08,04,9.30
2019,04,01,08,05,9.30
2019,04,01,08,06,9.30
2019,04,01,08,07,9.30
2019,04,01,08,08,9.30
2019,04,01,08,09,9.30
2019,04,01,08,10,9.30
2019,04,01,08,11,9.30
2019,04,01,08,12,9.30
2019,04,01,08,13,9.30
2019,04,01,08,14,9.40
2019,04,01,08,15,9.40
2019,04,01,08,16,9.40
2019,04,01,08,17,9.40
2019,04,01,08,18,9.40
2019,04,01,08,19,9.40
2019,04,01,08,20,9.40
2019,04,01,08,21,9.40
2019,04,01,08,22,9.50
2019,04,01,08,23,9.50
2019,04,01,08,24,9.50
2019,04,01,08,25,9.60
2019,04,01,08,26,9.60
2019,04,01,08,27,9.60
2019,04,01,08,28,9.60
2019,04,01,08,29,9.60
2019,04,01,08,30,9.60
2019,04,01,08,31,9.70
2019,04,01,08,32,9.70
2019,04,01,08,33,9.70
2019,04,01,08,34,9.70
2019,04,01,08,35,9.70
2019,04,01,08,36,9.70
2019,04,01,08,37,9.80
2019,04,01,08,38,9.80
2019,04,01,08,39,9.80
2019,04,01,08,40,9.80
2019,04,01,08,41,9.80
2019,04,01,08,42,9.80
2019,04,01,08,43,9.90
2019,04,01,08,44,9.90
2019,04,01,08,45,9.90
2019,04,01,08,46,9.90
2019,04,01,08,47,9.90
2019,04,01,08,48,9.90
2019,04,01,08,49,9.90
2019,04,01,08,50,9.90
2019,04,01,08,51,9.90
2019,04,01,08,52,9.90
2019,04,01,08,53,10.10
2019,04,01,08,54,10.10
2019,04,01,08,55,10.10
2019,04,01,08,56,10.10
2019,04,01,08,57,10.10
2019,04,01,08,58,10.10
2019,04,01,08,59,10.20
2019,04,01,09,00,10.20
2019,04,01,09,01,10.20
2019,04,01,09,02,10.20
2019,04,01,09,03,10.20
2019,04,01,09,04,10.20
2019,04,01,09,05,10.20
2019,04,01,09,06,10.30
2019,04,01,09,07,10.30
2019,04,01,09,08,10.30
2019,04,01,09,09,10.40
2019,04,01,09,10,10.40
2019,04,01,09,11,10.40
2019,04,01,09,12,10.40
2019,04,01,09,13,10.40
2019,04,01,09,14,10.40
2019,04,01,09,15,10.40
2019,04,01,09,16,10.40
2019,04,01,09,17,10.40
2019,04,01,09,18,10.40
2019,04,01,09,19,10.40
2019,04,01,09,20,10.40
2019,04,01,09,21,10.40
2019,04,01,09,22,10.40
2019,04,01,09,23,10.40
2019,04,01,09,24,10.40
2019,04,01,09,25,10.40
2019,04,01,09,26,10.40
2019,04,01,09,27,10.40
2019,04,01,09,28,10.40
2019,04,01,09,29,10.40
2019,04,01,09,30,10.60
2019,04,01,09,31,10.60
2019,04,01,09,32,10.60
2019,04,01,09,33,10.60
2019,04,01,09,34,10.60
2019,04,01,09,35,10.60
2019,04,01,09,36,10.60
2019,04,01,09,37,10.60
2019,04,01,09,38,10.60
2019,04,01,09,39,10.60
2019,04,01,09,40,10.60
2019,04,01,09,41,10.70
2019,04,01,09,42,10.70
2019,04,01,09,43,10.80
2019,04,01,09,44,10.80
2019,04,01,09,45,10.80
2019,04,01,09,46,10.80
2019,04,01,09,47,10.90
2019,04,01,09,48,10.90
2019,04,01,09,49,10.90
2019,04,01,09,50,10.90
2019,04,01,09,51,10.90
2019,04,01,09,52,10.90
2019,04,01,09,53,10.90
2019,04,01,09,54,10.90
2019,04,01,09,55,10.90
2019,04,01,09,56,10.90
2019,04,01,09,57,10.90
2019,04,01,09,58,11.00
2019,04,01,09,59,11.10
2019,04,01,10,00,11.10
2019,04,01,10,01,11.10
2019,04,01,10,02,11.10
2019,04,01,10,03,11.10
2019,04,01,10,04,11.20
2019,04,01,10,05,11.20
2019,04,01,10,06,11.30
2019,04,01,10,07,11.40
2019,04,01,10,08,11.30
2019,04,01,10,09,11.30
2019,04,01,10,10,11.30
2019,04,01,10,11,11.30
2019,04,01,10,12,11.30
2019,04,01,10,13,11.30
2019,04,01,10,14,11.30
2019,04,01,10,15,11.30
2019,04,01,10,16,11.30
2019,04,01,10,17,11.40
2019,04,01,10,18,11.50
2019,04,01,10,19,11.60
2019,04,01,10,20,11.60
2019,04,01,10,21,11.70
2019,04,01,10,22,11.70
2019,04,01,10,23,11.70
2019,04,01,10,24,11.80
2019,04,01,10,25,11.80
2019,04,01,10,26,11.80
2019,04,01,10,27,11.80
2019,04,01,10,28,11.80
2019,04,01,10,29,11.90
2019,04,01,10,30,11.90
2019,04,01,10,31,11.90
2019,04,01,10,32,11.90
2019,04,01,10,33,11.80
2019,04,01,10,34,11.80
2019,04,01,10,35,11.80
2019,04,01,10,36,11.80
2019,04,01,10,37,11.80
2019,04,01,10,38,11.80
2019,04,01,10,39,11.80
2019,04,01,10,40,11.80
2019,04,01,10,41,11.80
2019,04,01,10,42,11.90
2019,04,01,10,43,12.00
2019,04,01,10,44,12.00
2019,04,01,10,45,12.00
2019,04,01,10,46,12.00
2019,04,01,10,47,12.00
2019,04,01,10,48,11.90
2019,04,01,10,49,11.90
2019,04,01,10,50,11.90
2019,04,01,10,51,12.00
2019,04,01,10,52,12.00
2019,04,01,10,53,12.10
2019,04,01,10,54,12.20
2019,04,01,10,55,12.30
2019,04,01,10,56,12.30
2019,04,01,10,57,12.30
2019,04,01,10,58,12.30
2019,04,01,10,59,12.30
2019,04,01,11,00,12.30
2019,04,01,11,01,12.40
2019,04,01,11,02,12.40
2019,04,01,11,03,12.40
2019,04,01,11,04,12.40
2019,04,01,11,05,12.50
2019,04,01,11,06,12.60
2019,04,01,11,07,12.60
2019,04,01,11,08,12.70
2019,04,01,11,09,12.70
2019,04,01,11,10,12.80
2019,04,01,11,11,12.90
2019,04,01,11,12,12.90
2019,04,01,11,13,13.00
2019,04,01,11,14,13.10
2019,04,01,11,15,13.10
2019,04,01,11,16,13.20
2019,04,01,11,17,13.10
2019,04,01,11,18,13.10
2019,04,01,11,19,13.10
2019,04,01,11,20,13.10
2019,04,01,11,21,13.10
2019,04,01,11,22,13.10
2019,04,01,11,23,13.20
2019,04,01,11,24,13.30
2019,04,01,11,25,13.30
2019,04,01,11,26,13.30
2019,04,01,11,27,13.30
2019,04,01,11,28,13.30
2019,04,01,11,29,13.20
2019,04,01,11,30,13.30
2019,04,01,11,31,13.30
2019,04,01,11,32,13.30
2019,04,01,11,33,13.30
2019,04,01,11,34,13.30
2019,04,01,11,35,13.30
2019,04,01,11,36,13.40
2019,04,01,11,37,13.40
2019,04,01,11,38,13.40
2019,04,01,11,39,13.50
2019,04,01,11,40,13.50
2019,04,01,11,41,13.50
2019,04,01,11,42,13.50
2019,04,01,11,43,13.50
2019,04,01,11,44,13.50
2019,04,01,11,45,13.50
2019,04,01,11,46,13.40
2019,04,01,11,47,13.40
2019,04,01,11,48,13.30
2019,04,01,11,49,13.30
2019,04,01,11,50,13.40
2019,04,01,11,51,13.50
2019,04,01,11,52,13.50
2019,04,01,11,53,13.50
2019,04,01,11,54,13.50
2019,04,01,11,55,13.50
2019,04,01,11,56,13.50
2019,04,01,11,57,13.50
2019,04,01,11,58,13.50
2019,04,01,11,59,13.50
2019,04,01,12,00,13.60
2019,04,01,12,01,13.70
2019,04,01,12,02,13.70
2019,04,01,12,03,13.70
2019,04,01,12,04,13.80
2019,04,01,12,05,13.80
2019,04,01,12,06,13.80
2019,04,01,12,07,13.80
2019,04,01,12,08,13.80
2019,04,01,12,09,13.80
2019,04,01,12,10,13.80
2019,04,01,12,11,13.80
2019,04,01,12,12,13.90
2019,04,01,12,13,13.90
2019,04,01,12,14,13.90
2019,04,01,12,15,13.90
2019,04,01,12,16,13.90
2019,04,01,12,17,13.90
2019,04,01,12,18,14.00
2019,04,01,12,19,14.00
2019,04,01,12,20,14.00
2019,04,01,12,21,14.00
2019,04,01,12,22,14.00
2019,04,01,12,23,13.90
2019,04,01,12,24,14.00
2019,04,01,12,25,14.00
2019,04,01,12,26,14.10
2019,04,01,12,27,14.20
2019,04,01,12,28,14.30
2019,04,01,12,29,14.40
2019,04,01,12,30,14.40
2019,04,01,12,31,14.40
2019,04,01,12,32,14.40
2019,04,01,12,33,14.40
2019,04,01,12,34,14.30
2019,04,01,12,35,14.30
2019,04,01,12,36,14.30
2019,04,01,12,37,14.40
2019,04,01,12,38,14.40
2019,04,01,12,39,14.40
2019,04,01,12,40,14.40
2019,04,01,12,41,14.30
2019,04,01,12,42,14.30
2019,04,01,12,43,14.40
2019,04,01,12,44,14.40
2019,04,01,12,45,14.50
2019,04,01,12,46,14.50
2019,04,01,12,47,14.60
2019,04,01,12,48,14.60
2019,04,01,12,49,14.60
2019,04,01,12,50,14.70
2019,04,01,12,51,14.80
2019,04,01,12,52,14.80
2019,04,01,12,53,14.80
2019,04,01,12,54,14.80
2019,04,01,12,55,14.90
2019,04,01,12,56,14.90
2019,04,01,12,57,14.80
2019,04,01,12,58,14.80
2019,04,01,12,59,14.90
2019,04,01,13,00,14.90
2019,04,01,13,01,14.90
2019,04,01,13,02,14.90
2019,04,01,13,03,14.90
2019,04,01,13,04,14.80
2019,04,01,13,05,14.80
2019,04,01,13,06,14.80
2019,04,01,13,07,14.80
2019,04,01,13,08,14.80
2019,04,01,13,09,14.80
2019,04,01,13,10,14.90
2019,04,01,13,11,15.00
2019,04,01,13,12,15.00
2019,04,01,13,13,14.90
2019,04,01,13,14,14.90
2019,04,01,13,15,14.90
2019,04,01,13,16,14.90
2019,04,01,13,17,14.90
2019,04,01,13,18,15.10
2019,04,01,13,19,15.20
2019,04,01,13,20,15.30
2019,04,01,13,21,15.30
2019,04,01,13,22,15.20
2019,04,01,13,23,15.10
2019,04,01,13,24,15.00
2019,04,01,13,25,15.10
2019,04,01,13,26,15.10
2019,04,01,13,27,15.10
2019,04,01,13,28,15.20
2019,04,01,13,29,15.10
2019,04,01,13,30,15.10
2019,04,01,13,31,15.00
2019,04,01,13,32,14.90
2019,04,01,13,33,15.00
2019,04,01,13,34,15.10
2019,04,01,13,35,15.10
2019,04,01,13,36,15.20
2019,04,01,13,37,15.20
2019,04,01,13,38,15.30
2019,04,01,13,39,15.30
2019,04,01,13,40,15.30
2019,04,01,13,41,15.30
2019,04,01,13,42,15.30
2019,04,01,13,43,15.30
2019,04,01,13,44,15.30
2019,04,01,13,45,15.30
2019,04,01,13,46,15.30
2019,04,01,13,47,15.30
2019,04,01,13,48,15.30
2019,04,01,13,49,15.30
2019,04,01,13,50,15.30
2019,04,01,13,51,15.30
2019,04,01,13,52,15.30
2019,04,01,13,53,15.30
2019,04,01,13,54,15.30
2019,04,01,13,55,15.40
2019,04,01,13,56,15.40
2019,04,01,13,57,15.50
2019,04,01,13,58,15.50
2019,04,01,13,59,15.60
2019,04,01,14,00,15.60
2019,04,01,14,01,15.60
2019,04,01,14,02,15.60
2019,04,01,14,03,15.50
2019,04,01,14,04,15.50
2019,04,01,14,05,15.50
2019,04,01,14,06,15.60
2019,04,01,14,07,15.60
2019,04,01,14,08,15.50
2019,04,01,14,09,15.50
2019,04,01,14,10,15.50
2019,04,01,14,11,15.50
2019,04,01,14,12,15.50
2019,04,01,14,13,15.50
2019,04,01,14,14,15.50
2019,04,01,14,15,15.60
2019,04,01,14,16,15.60
2019,04,01,14,17,15.60
2019,04,01,14,18,15.60
2019,04,01,14,19,15.50
2019,04,01,14,20,15.50
2019,04,01,14,21,15.50
2019,04,01,14,22,15.60
2019,04,01,14,23,15.50
2019,04,01,14,24,15.50
2019,04,01,14,25,15.60
2019,04,01,14,26,15.60
2019,04,01,14,27,15.50
2019,04,01,14,28,15.50
2019,04,01,14,29,15.40
2019,04,01,14,30,15.40
2019,04,01,14,31,15.40
2019,04,01,14,32,15.40
2019,04,01,14,33,15.40
2019,04,01,14,34,15.30
2019,04,01,14,35,15.30
2019,04,01,14,36,15.30
2019,04,01,14,37,15.40
2019,04,01,14,38,15.40
2019,04,01,14,39,15.40
2019,04,01,14,40,15.40
2019,04,01,14,41,15.50
2019,04,01,14,42,15.60
2019,04,01,14,43,15.70
2019,04,01,14,44,15.80
2019,04,01,14,45,15.70
2019,04,01,14,46,15.70
2019,04,01,14,47,15.80
2019,04,01,14,48,15.80
2019,04,01,14,49,15.70
2019,04,01,14,50,15.70
2019,04,01,14,51,15.70
2019,04,01,14,52,15.60
2019,04,01,14,53,15.70
2019,04,01,14,54,15.70
2019,04,01,14,55,15.70
2019,04,01,14,56,15.60
2019,04,01,14,57,15.60
2019,04,01,14,58,15.60
2019,04,01,14,59,15.60
2019,04,01,15,00,15.70
2019,04,01,15,01,15.80
2019,04,01,15,02,15.90
2019,04,01,15,03,15.90
2019,04,01,15,04,15.90
2019,04,01,15,05,16.00
2019,04,01,15,06,16.00
2019,04,01,15,07,16.00
2019,04,01,15,08,16.10
2019,04,01,15,09,16.10
2019,04,01,15,10,16.00
2019,04,01,15,11,15.90
2019,04,01,15,12,15.80
2019,04,01,15,13,15.80
2019,04,01,15,14,15.80
2019,04,01,15,15,15.80
2019,04,01,15,16,15.70
2019,04,01,15,17,15.70
2019,04,01,15,18,15.70
2019,04,01,15,19,15.70
2019,04,01,15,20,15.70
2019,04,01,15,21,15.80
2019,04,01,15,22,15.80
2019,04,01,15,23,15.80
2019,04,01,15,24,15.80
2019,04,01,15,25,15.80
2019,04,01,15,26,15.80
2019,04,01,15,27,15.90
2019,04,01,15,28,16.00
2019,04,01,15,29,16.10
2019,04,01,15,30,16.10
2019,04,01,15,31,16.10
2019,04,01,15,32,16.10
2019,04,01,15,33,16.10
2019,04,01,15,34,16.10
2019,04,01,15,35,16.10
2019,04,01,15,36,16.10
2019,04,01,15,37,16.10
2019,04,01,15,38,16.10
2019,04,01,15,39,16.10
2019,04,01,15,40,16.10
2019,04,01,15,41,16.20
2019,04,01,15,42,16.20
2019,04,01,15,43,16.10
2019,04,01,15,44,16.10
2019,04,01,15,45,16.20
2019,04,01,15,46,16.20
2019,04,01,15,47,16.20
2019,04,01,15,48,16.30
2019,04,01,15,49,16.30
2019,04,01,15,50,16.30
2019,04,01,15,51,16.30
2019,04,01,15,52,16.30
2019,04,01,15,53,16.40
2019,04,01,15,54,16.40
2019,04,01,15,55,16.40
2019,04,01,15,56,16.60
2019,04,01,15,57,16.60
2019,04,01,15,58,16.60
2019,04,01,15,59,16.60
2019,04,01,16,00,16.60
2019,04,01,16,01,16.50
2019,04,01,16,02,16.60
2019,04,01,16,03,16.60
2019,04,01,16,04,16.70
2019,04,01,16,05,16.70
2019,04,01,16,06,16.70
2019,04,01,16,07,16.70
2019,04,01,16,08,16.70
2019,04,01,16,09,16.70
2019,04,01,16,10,16.70
2019,04,01,16,11,16.70
2019,04,01,16,12,16.70
2019,04,01,16,13,16.70
2019,04,01,16,14,16.70
2019,04,01,16,15,16.70
2019,04,01,16,16,16.70
2019,04,01,16,17,16.70
2019,04,01,16,18,16.70
2019,04,01,16,19,16.60
2019,04,01,16,20,16.50
2019,04,01,16,21,16.40
2019,04,01,16,22,16.40
2019,04,01,16,23,16.40
2019,04,01,16,24,16.50
2019,04,01,16,25,16.60
2019,04,01,16,26,16.60
2019,04,01,16,27,16.70
2019,04,01,16,28,16.70
2019,04,01,16,29,16.70
2019,04,01,16,30,16.80
2019,04,01,16,31,16.90
2019,04,01,16,32,16.90
2019,04,01,16,33,16.90
2019,04,01,16,34,16.90
2019,04,01,16,35,16.90
2019,04,01,16,36,16.80
2019,04,01,16,37,16.80
2019,04,01,16,38,16.70
2019,04,01,16,39,16.70
2019,04,01,16,40,16.70
2019,04,01,16,41,16.70
2019,04,01,16,42,16.70
2019,04,01,16,43,16.80
2019,04,01,16,44,16.80
2019,04,01,16,45,16.90
2019,04,01,16,46,16.90
2019,04,01,16,47,16.90
2019,04,01,16,48,16.80
2019,04,01,16,49,16.70
2019,04,01,16,50,16.70
2019,04,01,16,51,16.70
2019,04,01,16,52,16.70
2019,04,01,16,53,16.70
2019,04,01,16,54,16.70
2019,04,01,16,55,16.70
2019,04,01,16,56,16.70
2019,04,01,16,57,16.70
2019,04,01,16,58,16.70
2019,04,01,16,59,16.70
2019,04,01,17,00,16.80
2019,04,01,17,01,16.80
2019,04,01,17,02,16.80
2019,04,01,17,03,16.80
2019,04,01,17,04,16.70
2019,04,01,17,05,16.70
2019,04,01,17,06,16.70
2019,04,01,17,07,16.70
2019,04,01,17,08,16.70
2019,04,01,17,09,16.70
2019,04,01,17,10,16.70
2019,04,01,17,11,16.70
2019,04,01,17,12,16.70
2019,04,01,17,13,16.70
2019,04,01,17,14,16.70
2019,04,01,17,15,16.70
2019,04,01,17,16,16.70
2019,04,01,17,17,16.70
2019,04,01,17,18,16.70
2019,04,01,17,19,16.70
2019,04,01,17,20,16.70
2019,04,01,17,21,16.80
2019,04,01,17,22,16.80
2019,04,01,17,23,16.80
2019,04,01,17,24,16.90
2019,04,01,17,25,16.90
2019,04,01,17,26,16.90
2019,04,01,17,27,16.80
2019,04,01,17,28,16.90
2019,04,01,17,29,16.90
2019,04,01,17,30,16.90
2019,04,01,17,31,17.00
2019,04,01,17,32,17.00
2019,04,01,17,33,17.10
2019,04,01,17,34,17.10
2019,04,01,17,35,17.20
2019,04,01,17,36,17.20
2019,04,01,17,37,17.20
2019,04,01,17,38,17.10
2019,04,01,17,39,17.10
2019,04,01,17,40,17.10
2019,04,01,17,41,17.00
2019,04,01,17,42,17.00